User: anonymous   Login
Location: Asni�res
(49.1337°N, 2.3555°E)
Time: 01:50:24
(UTC+00:00)
Language:

Okean O Rocket - Orbit

View from above orbital plane
View from above orbital plane
View from above satellite
View from above satellite

Ground track
Ground track

The orbit data is extracted from the following two-line orbital elements,

1 25861U 99039B   22020.58225087  .00000178  00000-0  31709-4 0  9995
2 25861  98.1927  45.0276 0016927  88.4305  24.2250 14.78706842213645
Epoch (UTC): 20 January 2022 13:58:26
Eccentricity: 0.0016927
inclination: 98.1927°
perigee height: 621 km
apogee height: 645 km
right ascension of ascending node: 45.0276°
argument of perigee: 88.4305°
revolutions per day: 14.78706842
mean anomaly at epoch: 24.2250°
orbit number at epoch: 21364

The dashed part of the orbit path shows where the satellite is in the earth's shadow,  

DLR